Flag for Azerbaijan Weather past 2 weeks in Sumqayit, Azerbaijan

52 °F


Feels Like: 46 °F
Forecast: 44 / 51 °F
Wind: 22 mph from Northwest

Location: Baku / Bine Airport

Current Time: Nov 27, 2015 at 1:15:47 PM

Latest Report: Nov 27, 2015 at 1:00 PM

Visibility: N/A

Pressure: 29.98 "Hg

Humidity: 82%

Dew point: 46 °F

Location of SumqayitLocation

Historic Weather in Sumqayit — Graph


Sumqayit temperature yesterday

Maximum temperature yesterday: 57 °F (at 1:30 PM)
Minimum temperature yesterday: 48 °F (at 6:30 PM)
Average temperature yesterday: 52 °F

Past Weeks' High & Low Weather Summary

High59 °F (Nov 13, 1:30 PM)100% (Nov 13, 5:30 AM)30.36 "Hg (Nov 13, 5:30 AM)
Low39 °F (Nov 13, 5:30 AM)55% (Nov 12, 12:00 PM)29.59 "Hg (Nov 17, 12:00 PM)
Average51 °F82%30.08 "Hg
* Reported Nov 12 12:00 Noon — Nov 27 12:00 Noon, Sumqayit, Weather by CustomWeather, © 2015

Note: Actual official high and low records may vary slightly from our data, if they occured in-between our weather recording intervals... More about our weather records


Sumqayit weather history for previous 24 hours

Time TempWeatherWind HumidityBarometerVisibility
12:00 PM
Fri, Nov 27
52 °FOvercast.18 mph77%29.98 "HgN/A
11:00 AM50 °FOvercast.18 mph82%29.98 "HgN/A
10:30 AM50 °FOvercast.15 mph82%29.98 "HgN/A
10:00 AM50 °FOvercast.18 mph88%29.95 "HgN/A
9:30 AM50 °FOvercast.16 mph88%29.95 "HgN/A
9:00 AM50 °FOvercast.16 mph88%29.92 "HgN/A
8:00 AM48 °FPartly sunny.14 mph94%29.92 "HgN/A
7:30 AM48 °FPassing clouds.16 mph94%29.89 "HgN/A
7:00 AM48 °FPassing clouds.14 mph94%29.86 "Hg4 mi
6:30 AM48 °FFog.13 mph94%29.86 "Hg3 mi
6:00 AM48 °FFog.10 mph94%29.86 "Hg2 mi
5:30 AM46 °FFog.9 mph100%29.83 "Hg2 mi
5:00 AM46 °FFog.9 mph100%29.83 "Hg2 mi
4:30 AM46 °FFog.9 mph100%29.83 "Hg1 mi
4:00 AM46 °FFog.12 mph100%29.83 "Hg1 mi
3:30 AM46 °FFog.8 mph100%29.80 "Hg0 mi
3:00 AM45 °FFog.6 mph100%29.80 "Hg0 mi
2:00 AM41 °FQuite cool.No wind100%29.80 "HgN/A
1:30 AM43 °FFog.No wind100%29.83 "Hg0 mi
1:00 AM45 °FFog.No wind93%29.83 "Hg0 mi
12:30 AM45 °FFog.5 mph93%29.86 "Hg1 mi
12:00 AM45 °FFog.5 mph100%29.83 "Hg1 mi
11:30 PM
Thu, Nov 26
48 °FFog.3 mph94%29.86 "Hg1 mi
11:00 PM48 °FFog.5 mph94%29.86 "Hg1 mi
10:30 PM48 °FFog.5 mph94%29.86 "Hg1 mi
10:00 PM48 °FFog.5 mph94%29.86 "Hg1 mi
9:30 PM50 °FFog.6 mph94%29.86 "Hg1 mi
9:00 PM50 °FFog.6 mph94%29.86 "Hg1 mi
8:30 PM50 °FFog.6 mph94%29.86 "Hg1 mi
8:00 PM48 °FFog.6 mph94%29.86 "Hg1 mi
7:30 PM48 °FFog.5 mph94%29.86 "Hg1 mi
7:00 PM48 °FFog.5 mph94%29.86 "Hg1 mi
6:30 PM48 °FFog.3 mph94%29.86 "Hg1 mi
6:00 PM50 °FFog.3 mph88%29.86 "Hg2 mi
5:30 PM50 °FFog.7 mph88%29.86 "Hg3 mi
5:00 PM52 °FPartly sunny.6 mph88%29.83 "Hg4 mi
4:30 PM54 °FPartly sunny.9 mph77%29.83 "Hg4 mi
4:00 PM55 °FPartly sunny.5 mph72%29.83 "Hg4 mi
3:30 PM57 °FPartly sunny.No wind67%29.83 "Hg4 mi
3:00 PM57 °FPartly sunny.No wind67%29.83 "Hg4 mi
2:30 PM57 °FPartly sunny.5 mph67%29.86 "Hg4 mi
2:00 PM55 °FPartly sunny.3 mph77%29.86 "Hg4 mi
1:30 PM57 °FPartly sunny.6 mph72%29.86 "Hg4 mi
1:00 PM55 °FPartly sunny.8 mph67%29.86 "Hg4 mi
Weather by CustomWeather, © 2015

See weather overviewHow to use our weather pages